Time,TemperatureF,DewpointF,PressureIn,WindDirection,WindDirectionDegrees,WindSpeedMPH,WindSpeedGustMPH,Humidity,HourlyPrecipIn,Conditions,Clouds,dailyrainin,SolarRadiationWatts/m^2,SoftwareType,DateUTC
2013-02-26 00:00:00,31.0,26.0,-100.00,East,90,7.0,-999.0,79,-99.99,,,-99.99,0.000000,,2013-02-26 05:00:00,
2013-02-26 00:43:00,31.0,26.0,-100.00,East,90,7.0,-999.0,79,-99.99,,,-99.99,0.000000,,2013-02-26 05:43:00,
2013-02-26 00:52:00,31.0,26.0,-100.00,East,90,7.0,-999.0,79,-99.99,,,-99.99,0.000000,,2013-02-26 05:52:00,
2013-02-26 01:00:00,30.0,24.0,-100.00,ENE,67,8.0,-999.0,79,-99.99,,,-99.99,0.000000,,2013-02-26 06:00:00,
2013-02-26 01:32:00,30.0,24.0,-100.00,ENE,67,8.0,-999.0,79,-99.99,,,-99.99,0.000000,,2013-02-26 06:32:00,
2013-02-26 01:42:00,30.0,24.0,-100.00,ENE,67,8.0,-999.0,79,-99.99,,,-99.99,0.000000,,2013-02-26 06:42:00,
2013-02-26 01:52:00,30.0,24.0,-100.00,ENE,67,8.0,-999.0,79,-99.99,,,-99.99,0.000000,,2013-02-26 06:52:00,
2013-02-26 02:00:00,29.0,24.0,-100.00,ENE,67,9.0,-999.0,78,-99.99,,,-99.99,0.000000,,2013-02-26 07:00:00,
2013-02-26 02:42:00,29.0,24.0,-100.00,ENE,67,9.0,-999.0,78,-99.99,,,-99.99,0.000000,,2013-02-26 07:42:00,
2013-02-26 02:52:00,29.0,24.0,-100.00,ENE,67,9.0,-999.0,78,-99.99,,,-99.99,0.000000,,2013-02-26 07:52:00,
2013-02-26 03:00:00,29.0,23.0,-100.00,ENE,67,11.0,-999.0,78,-99.99,,,-99.99,0.000000,,2013-02-26 08:00:00,
2013-02-26 03:42:00,29.0,23.0,-100.00,ENE,67,11.0,-999.0,78,-99.99,,,-99.99,0.000000,,2013-02-26 08:42:00,
2013-02-26 03:52:00,29.0,23.0,-100.00,ENE,67,11.0,-999.0,78,-99.99,,,-99.99,0.000000,,2013-02-26 08:52:00,
2013-02-26 04:00:00,29.0,23.0,-100.00,ENE,67,13.0,-999.0,77,-99.99,,,-99.99,0.000000,,2013-02-26 09:00:00,
2013-02-26 04:43:00,29.0,23.0,-100.00,ENE,67,13.0,-999.0,77,-99.99,,,-99.99,0.000000,,2013-02-26 09:43:00,
2013-02-26 04:52:00,29.0,23.0,-100.00,ENE,67,13.0,-999.0,77,-99.99,,,-99.99,0.000000,,2013-02-26 09:52:00,
2013-02-26 05:00:00,29.0,23.0,-100.00,ENE,67,14.0,-999.0,77,-99.99,,,-99.99,0.000000,,2013-02-26 10:00:00,
2013-02-26 05:42:00,29.0,23.0,-100.00,ENE,67,14.0,-999.0,77,-99.99,,,-99.99,0.000000,,2013-02-26 10:42:00,
2013-02-26 05:52:00,29.0,23.0,-100.00,ENE,67,14.0,-999.0,77,-99.99,,,-99.99,0.000000,,2013-02-26 10:52:00,
2013-02-26 06:00:00,30.0,23.0,-100.00,ENE,67,12.0,-999.0,77,-99.99,,,-99.99,0.000000,,2013-02-26 11:00:00,
2013-02-26 06:42:00,30.0,23.0,-100.00,ENE,67,12.0,-999.0,77,-99.99,,,-99.99,0.000000,,2013-02-26 11:42:00,
2013-02-26 06:53:00,30.0,23.0,-100.00,ENE,67,12.0,-999.0,77,-99.99,,,-99.99,0.000000,,2013-02-26 11:53:00,
2013-02-26 07:00:00,30.0,23.0,-100.00,ENE,67,13.0,-999.0,75,-99.99,,,-99.99,0.000000,,2013-02-26 12:00:00,
2013-02-26 07:42:00,30.0,23.0,-100.00,ENE,67,13.0,-999.0,75,-99.99,,,-99.99,0.000000,,2013-02-26 12:42:00,
2013-02-26 07:53:00,30.0,23.0,-100.00,ENE,67,13.0,-999.0,75,-99.99,,,-99.99,0.000000,,2013-02-26 12:53:00,
2013-02-26 08:00:00,31.0,23.0,-100.00,ENE,67,15.0,-999.0,74,-99.99,,,-99.99,2.320000,,2013-02-26 13:00:00,
2013-02-26 08:42:00,31.0,23.0,-100.00,ENE,67,15.0,-999.0,74,-99.99,,,-99.99,2.320000,,2013-02-26 13:42:00,
2013-02-26 08:52:00,31.0,23.0,-100.00,ENE,67,15.0,-999.0,74,-99.99,,,-99.99,2.320000,,2013-02-26 13:52:00,
2013-02-26 09:00:00,31.0,24.0,-100.00,ENE,67,16.0,-999.0,72,-99.99,,,-99.99,33.639999,,2013-02-26 14:00:00,
2013-02-26 09:42:00,31.0,24.0,-100.00,ENE,67,16.0,-999.0,72,-99.99,,,-99.99,33.639999,,2013-02-26 14:42:00,
2013-02-26 09:52:00,31.0,24.0,-100.00,ENE,67,16.0,-999.0,72,-99.99,,,-99.99,33.639999,,2013-02-26 14:52:00,
2013-02-26 10:00:00,33.0,24.0,-100.00,ENE,67,16.0,-999.0,70,-99.99,,,-99.99,109.040001,,2013-02-26 15:00:00,
2013-02-26 10:42:00,33.0,24.0,-100.00,ENE,67,16.0,-999.0,70,-99.99,,,-99.99,109.040001,,2013-02-26 15:42:00,
2013-02-26 10:52:00,33.0,24.0,-100.00,ENE,67,16.0,-999.0,70,-99.99,,,-99.99,109.040001,,2013-02-26 15:52:00,
2013-02-26 11:00:00,34.0,25.0,-100.00,ENE,67,18.0,-999.0,72,0.01,,,-99.99,58.000000,,2013-02-26 16:00:00,
2013-02-26 11:42:00,34.0,25.0,-100.00,ENE,67,18.0,-999.0,72,0.01,,,-99.99,58.000000,,2013-02-26 16:42:00,
2013-02-26 11:52:00,34.0,25.0,-100.00,ENE,67,18.0,-999.0,72,0.01,,,-99.99,58.000000,,2013-02-26 16:52:00,
2013-02-26 12:00:00,33.0,28.0,-100.00,ENE,67,16.0,-999.0,81,0.09,,,-99.99,40.599998,,2013-02-26 17:00:00,
2013-02-26 12:42:00,33.0,28.0,-100.00,ENE,67,16.0,-999.0,81,0.09,,,-99.99,40.599998,,2013-02-26 17:42:00,
2013-02-26 12:52:00,33.0,28.0,-100.00,ENE,67,16.0,-999.0,81,0.09,,,-99.99,40.599998,,2013-02-26 17:52:00,
2013-02-26 13:00:00,33.0,29.0,-100.00,ENE,67,12.0,-999.0,86,0.05,,,-99.99,56.840000,,2013-02-26 18:00:00,
2013-02-26 13:42:00,33.0,29.0,-100.00,ENE,67,12.0,-999.0,86,0.05,,,-99.99,56.840000,,2013-02-26 18:42:00,
2013-02-26 13:53:00,33.0,29.0,-100.00,ENE,67,12.0,-999.0,86,0.05,,,-99.99,56.840000,,2013-02-26 18:53:00,
2013-02-26 14:00:00,33.0,30.0,-100.00,ENE,67,7.0,-999.0,90,0.12,,,-99.99,38.279999,,2013-02-26 19:00:00,
2013-02-26 14:42:00,33.0,30.0,-100.00,ENE,67,7.0,-999.0,90,0.12,,,-99.99,38.279999,,2013-02-26 19:42:00,
2013-02-26 14:52:00,33.0,30.0,-100.00,ENE,67,7.0,-999.0,90,0.12,,,-99.99,38.279999,,2013-02-26 19:52:00,
2013-02-26 17:00:00,32.0,32.0,-100.00,ENE,67,6.0,-999.0,100,0.03,,,-99.99,13.920000,,2013-02-26 22:00:00,
2013-02-26 17:42:00,32.0,32.0,-100.00,ENE,67,6.0,-999.0,100,0.03,,,-99.99,13.920000,,2013-02-26 22:42:00,
2013-02-26 17:52:00,32.0,32.0,-100.00,ENE,67,6.0,-999.0,100,0.03,,,-99.99,13.920000,,2013-02-26 22:52:00,
2013-02-26 18:00:00,32.0,32.0,-100.00,ENE,67,12.0,-999.0,100,0.02,,,-99.99,9.280000,,2013-02-26 23:00:00,
2013-02-26 18:42:00,32.0,32.0,-100.00,ENE,67,12.0,-999.0,100,0.02,,,-99.99,9.280000,,2013-02-26 23:42:00,
2013-02-26 18:52:00,32.0,32.0,-100.00,ENE,67,12.0,-999.0,100,0.02,,,-99.99,9.280000,,2013-02-26 23:52:00,
2013-02-26 19:00:00,32.0,32.0,-100.00,ENE,67,10.0,-999.0,100,-99.99,,,-99.99,1.160000,,2013-02-27 00:00:00,
2013-02-26 19:42:00,32.0,32.0,-100.00,ENE,67,10.0,-999.0,100,-99.99,,,-99.99,1.160000,,2013-02-27 00:42:00,
2013-02-26 19:52:00,32.0,32.0,-100.00,ENE,67,10.0,-999.0,100,-99.99,,,-99.99,1.160000,,2013-02-27 00:52:00,
2013-02-26 20:00:00,32.0,32.0,-100.00,NE,45,9.0,-999.0,101,-99.99,,,-99.99,0.000000,,2013-02-27 01:00:00,
2013-02-26 20:42:00,32.0,32.0,-100.00,NE,45,9.0,-999.0,101,-99.99,,,-99.99,0.000000,,2013-02-27 01:42:00,
2013-02-26 20:52:00,32.0,32.0,-100.00,NE,45,9.0,-999.0,101,-99.99,,,-99.99,0.000000,,2013-02-27 01:52:00,
2013-02-26 21:00:00,32.0,32.0,-100.00,NE,45,8.0,-999.0,101,-99.99,,,-99.99,0.000000,,2013-02-27 02:00:00,
2013-02-26 21:42:00,32.0,32.0,-100.00,NE,45,8.0,-999.0,101,-99.99,,,-99.99,0.000000,,2013-02-27 02:42:00,
2013-02-26 21:52:00,32.0,32.0,-100.00,NE,45,8.0,-999.0,101,-99.99,,,-99.99,0.000000,,2013-02-27 02:52:00,
2013-02-26 22:00:00,32.0,32.0,-100.00,NE,45,8.0,-999.0,101,-99.99,,,-99.99,0.000000,,2013-02-27 03:00:00,
2013-02-26 22:42:00,32.0,32.0,-100.00,NE,45,8.0,-999.0,101,-99.99,,,-99.99,0.000000,,2013-02-27 03:42:00,
2013-02-26 22:52:00,32.0,32.0,-100.00,NE,45,8.0,-999.0,101,-99.99,,,-99.99,0.000000,,2013-02-27 03:52:00,
2013-02-26 23:00:00,32.0,32.0,-100.00,NE,45,7.0,-999.0,101,0.01,,,-99.99,0.000000,,2013-02-27 04:00:00,
2013-02-26 23:42:00,32.0,32.0,-100.00,NE,45,7.0,-999.0,101,0.01,,,-99.99,0.000000,,2013-02-27 04:42:00,
2013-02-26 23:52:00,32.0,32.0,-100.00,NE,45,7.0,-999.0,101,0.01,,,-99.99,0.000000,,2013-02-27 04:52:00,